| time (UTC) | temp F | wind direction | speed MPH | gust MPH | rain 1hr in | rain 24hr in | rain mn in | humidity % | barometer mb |
| 20260509002026 | 57 | 189 | 2.0 | 5.0 | 0.00 | 0.00 | 0.00 | 65 | 1031.3 |
| 20260509001021 | 56 | 305 | 2.0 | 4.0 | 0.00 | 0.00 | 0.00 | 69 | 1031.2 |
| 20260509000017 | 55 | 8 | 4.0 | 9.0 | 0.00 | 0.00 | 0.00 | 71 | 1031.2 |
| 20260508235034 | 54 | 176 | 2.0 | 4.0 | 0.00 | 0.00 | 0.00 | 72 | 1031.3 |
| 20260508234030 | 52 | 197 | 3.0 | 5.0 | 0.00 | 0.00 | 0.00 | 75 | 1031.1 |
| 20260508233027 | 51 | 333 | 3.0 | 4.0 | 0.00 | 0.00 | 0.00 | 77 | 1031.1 |
| 20260508232023 | 50 | 18 | 5.0 | 7.0 | 0.00 | 0.00 | 0.00 | 77 | 1031.1 |
| 20260508231020 | 50 | 337 | 4.0 | 6.0 | 0.00 | 0.00 | 0.00 | 79 | 1031.0 |
| 20260508230017 | 49 | 120 | 3.0 | 4.0 | 0.00 | 0.00 | 0.00 | 80 | 1031.0 |
| 20260508225035 | 48 | 225 | 1.0 | 4.0 | 0.00 | 0.00 | 0.00 | 80 | 1030.9 |
| 20260508224032 | 48 | 159 | 3.0 | 5.0 | 0.00 | 0.00 | 0.00 | 78 | 1030.9 |
| 20260508223028 | 48 | 111 | 3.0 | 7.0 | 0.00 | 0.00 | 0.00 | 77 | 1030.8 |
| 20260508222023 | 49 | 47 | 1.0 | 3.0 | 0.00 | 0.00 | 0.00 | 76 | 1030.8 |
| 20260508221019 | 49 | 231 | 3.0 | 5.0 | 0.00 | 0.00 | 0.00 | 75 | 1030.7 |
| 20260508220016 | 50 | 19 | 4.0 | 6.0 | 0.00 | 0.00 | 0.00 | 74 | 1030.8 |
| 20260508215032 | 50 | 76 | 2.0 | 5.0 | 0.00 | 0.00 | 0.00 | 74 | 1030.7 |
| 20260508214030 | 51 | 1 | 4.0 | 6.0 | 0.00 | 0.00 | 0.00 | 73 | 1030.7 |
| 20260508213026 | 52 | 73 | 4.0 | 6.0 | 0.00 | 0.00 | 0.00 | 72 | 1030.5 |
| 20260508212023 | 52 | 187 | 5.0 | 8.0 | 0.00 | 0.00 | 0.00 | 71 | 1030.5 |
| 20260508211020 | 52 | 20 | 2.0 | 4.0 | 0.00 | 0.00 | 0.00 | 72 | 1030.5 |
| 20260508210016 | 52 | 126 | 1.0 | 6.0 | 0.00 | 0.00 | 0.00 | 70 | 1030.3 |
| 20260508205032 | 53 | 223 | 4.0 | 7.0 | 0.00 | 0.00 | 0.00 | 68 | 1030.2 |
| 20260508204029 | 54 | 29 | 2.0 | 4.0 | 0.00 | 0.00 | 0.00 | 68 | 1030.1 |
| 20260508202022 | 54 | 67 | 0.0 | 2.0 | 0.00 | 0.00 | 0.00 | 66 | 1030.1 |
| 20260508201018 | 55 | 358 | 1.0 | 3.0 | 0.00 | 0.00 | 0.00 | 66 | 1029.9 |
| 20260508200016 | 54 | 29 | 1.0 | 4.0 | 0.00 | 0.00 | 0.00 | 68 | 1029.9 |
| 20260508195032 | 53 | 319 | 0.0 | 2.0 | 0.00 | 0.00 | 0.00 | 70 | 1029.9 |
| 20260508194029 | 52 | 334 | 0.0 | 2.0 | 0.00 | 0.00 | 0.00 | 71 | 1029.8 |
| 20260508193025 | 51 | 284 | 0.0 | 2.0 | 0.00 | 0.00 | 0.00 | 74 | 1029.7 |
| 20260508192023 | 51 | 295 | 0.0 | 2.0 | 0.00 | 0.00 | 0.00 | 74 | 1029.7 |
| 20260508191020 | 51 | 67 | 0.0 | 2.0 | 0.00 | 0.00 | 0.00 | 73 | 1029.8 |
| 20260508190016 | 51 | 50 | 1.0 | 2.0 | 0.00 | 0.00 | 0.00 | 73 | 1029.8 |
| 20260508185034 | 51 | 19 | 1.0 | 2.0 | 0.00 | 0.00 | 0.00 | 72 | 1029.7 |
| 20260508184031 | 52 | 44 | 1.0 | 3.0 | 0.00 | 0.00 | 0.00 | 71 | 1029.7 |
| 20260508183029 | 53 | 34 | 2.0 | 4.0 | 0.00 | 0.00 | 0.00 | 70 | 1029.8 |
| 20260508182025 | 52 | 39 | 1.0 | 3.0 | 0.00 | 0.00 | 0.00 | 70 | 1029.7 |
| 20260508181022 | 53 | 58 | 1.0 | 3.0 | 0.00 | 0.00 | 0.00 | 69 | 1029.8 |
| 20260508180018 | 53 | 56 | 1.0 | 3.0 | 0.00 | 0.00 | 0.00 | 69 | 1029.8 |
| 20260508175034 | 52 | 46 | 1.0 | 2.0 | 0.00 | 0.00 | 0.00 | 70 | 1029.7 |
| 20260508174031 | 52 | 327 | 0.0 | 2.0 | 0.00 | 0.00 | 0.00 | 71 | 1029.6 |
| 20260508173027 | 52 | 341 | 1.0 | 2.0 | 0.00 | 0.00 | 0.00 | 71 | 1029.6 |
| 20260508172023 | 52 | 25 | 1.0 | 2.0 | 0.00 | 0.00 | 0.00 | 70 | 1029.7 |
| 20260508171020 | 53 | 55 | 1.0 | 2.0 | 0.00 | 0.00 | 0.00 | 69 | 1029.7 |
| 20260508170035 | 53 | 56 | 1.0 | 3.0 | 0.00 | 0.00 | 0.00 | 67 | 1029.8 |
| 20260508165032 | 54 | 75 | 1.0 | 2.0 | 0.00 | 0.00 | 0.00 | 66 | 1029.8 |
| 20260508164029 | 54 | 63 | 1.0 | 2.0 | 0.00 | 0.00 | 0.00 | 65 | 1029.7 |
| 20260508163024 | 55 | 68 | 1.0 | 2.0 | 0.00 | 0.00 | 0.00 | 64 | 1029.6 |
| 20260508162020 | 55 | 39 | 1.0 | 2.0 | 0.00 | 0.00 | 0.00 | 63 | 1029.4 |
| 20260508161016 | 56 | 60 | 1.0 | 2.0 | 0.00 | 0.00 | 0.00 | 62 | 1029.4 |
| 20260508160030 | 56 | 58 | 1.0 | 2.0 | 0.00 | 0.00 | 0.00 | 62 | 1029.4 |
| 20260508155027 | 55 | 36 | 1.0 | 2.0 | 0.00 | 0.00 | 0.00 | 66 | 1029.4 |
| 20260508154022 | 52 | 16 | 1.0 | 3.0 | 0.00 | 0.00 | 0.00 | 72 | 1029.7 |
| 20260508153019 | 53 | 44 | 1.0 | 3.0 | 0.00 | 0.00 | 0.00 | 71 | 1029.7 |
| 20260508152016 | 54 | 54 | 1.0 | 2.0 | 0.00 | 0.00 | 0.00 | 70 | 1029.6 |
| 20260508151033 | 54 | 55 | 1.0 | 3.0 | 0.00 | 0.00 | 0.00 | 69 | 1029.7 |
| 20260508150029 | 55 | 20 | 1.0 | 2.0 | 0.00 | 0.00 | 0.00 | 68 | 1029.8 |
| 20260508145025 | 56 | 78 | 1.0 | 2.0 | 0.00 | 0.00 | 0.00 | 65 | 1029.7 |
| 20260508144020 | 57 | 96 | 0.0 | 2.0 | 0.00 | 0.00 | 0.00 | 63 | 1029.8 |
| 20260508143017 | 58 | 85 | 1.0 | 2.0 | 0.00 | 0.00 | 0.00 | 61 | 1029.8 |
| 20260508142033 | 59 | 55 | 0.0 | 2.0 | 0.00 | 0.00 | 0.00 | 59 | 1029.8 |
| 20260508141030 | 59 | 74 | 0.0 | 2.0 | 0.00 | 0.00 | 0.00 | 58 | 1029.6 |
| 20260508140026 | 59 | 91 | 0.0 | 2.0 | 0.00 | 0.00 | 0.00 | 60 | 1029.8 |
| 20260508135022 | 58 | 59 | 0.0 | 2.0 | 0.00 | 0.00 | 0.00 | 63 | 1029.8 |
| 20260508134018 | 58 | 67 | 0.0 | 2.0 | 0.00 | 0.00 | 0.00 | 65 | 1029.9 |
| 20260508133034 | 59 | 88 | 0.0 | 1.0 | 0.00 | 0.00 | 0.00 | 62 | 1029.9 |
| 20260508132032 | 58 | 75 | 1.0 | 5.0 | 0.00 | 0.00 | 0.00 | 65 | 1029.8 |
| 20260508131030 | 59 | 87 | 0.0 | 2.0 | 0.00 | 0.00 | 0.00 | 63 | 1029.7 |
| 20260508130025 | 60 | 99 | 1.0 | 3.0 | 0.00 | 0.00 | 0.00 | 62 | 1029.8 |
| 20260508125022 | 60 | 107 | 0.0 | 2.0 | 0.00 | 0.00 | 0.00 | 60 | 1029.6 |
| 20260508124020 | 61 | 106 | 1.0 | 3.0 | 0.00 | 0.00 | 0.00 | 58 | 1029.5 |
| 20260508123016 | 62 | 79 | 1.0 | 4.0 | 0.00 | 0.00 | 0.00 | 58 | 1029.6 |
| 20260508122034 | 62 | 81 | 1.0 | 4.0 | 0.00 | 0.00 | 0.00 | 58 | 1029.5 |
| 20260508121030 | 61 | 90 | 1.0 | 3.0 | 0.00 | 0.00 | 0.00 | 60 | 1029.4 |
| 20260508120027 | 60 | 70 | 0.0 | 2.0 | 0.00 | 0.00 | 0.00 | 61 | 1029.5 |
| 20260508115024 | 61 | 45 | 0.0 | 3.0 | 0.00 | 0.00 | 0.00 | 60 | 1029.6 |
| 20260508114020 | 60 | 78 | 1.0 | 3.0 | 0.00 | 0.00 | 0.00 | 62 | 1029.6 |
| 20260508113018 | 59 | 126 | 1.0 | 2.0 | 0.00 | 0.00 | 0.00 | 64 | 1029.6 |
| 20260508112035 | 59 | 101 | 1.0 | 2.0 | 0.00 | 0.00 | 0.00 | 64 | 1029.6 |
| 20260508111030 | 60 | 79 | 1.0 | 2.0 | 0.00 | 0.00 | 0.00 | 63 | 1029.6 |
| 20260508110026 | 61 | 101 | 1.0 | 2.0 | 0.00 | 0.00 | 0.00 | 62 | 1029.6 |
| 20260508105022 | 62 | 146 | 0.0 | 2.0 | 0.00 | 0.00 | 0.00 | 59 | 1029.5 |
| 20260508104018 | 63 | 113 | 1.0 | 2.0 | 0.00 | 0.00 | 0.00 | 57 | 1029.5 |
| 20260508103035 | 64 | 137 | 1.0 | 2.0 | 0.00 | 0.00 | 0.00 | 56 | 1029.5 |
| 20260508102032 | 65 | 138 | 1.0 | 3.0 | 0.00 | 0.00 | 0.00 | 54 | 1029.3 |
| 20260508101030 | 66 | 135 | 2.0 | 4.0 | 0.00 | 0.00 | 0.00 | 52 | 1029.3 |
| 20260508100026 | 66 | 152 | 2.0 | 3.0 | 0.00 | 0.00 | 0.00 | 51 | 1029.3 |
| 20260508095023 | 68 | 150 | 3.0 | 4.0 | 0.00 | 0.00 | 0.00 | 49 | 1029.2 |
| 20260508094020 | 68 | 146 | 3.0 | 5.0 | 0.00 | 0.00 | 0.00 | 48 | 1029.2 |
| 20260508093018 | 69 | 137 | 3.0 | 5.0 | 0.00 | 0.00 | 0.00 | 47 | 1029.2 |
| 20260508092035 | 70 | 121 | 2.0 | 5.0 | 0.00 | 0.00 | 0.00 | 48 | 1028.9 |
| 20260508091032 | 71 | 117 | 2.0 | 5.0 | 0.00 | 0.00 | 0.00 | 47 | 1029.0 |
| 20260508090029 | 71 | 85 | 2.0 | 6.0 | 0.00 | 0.00 | 0.00 | 46 | 1028.8 |
| 20260508085026 | 72 | 83 | 1.0 | 5.0 | 0.00 | 0.00 | 0.00 | 45 | 1028.8 |
| 20260508084023 | 72 | 74 | 3.0 | 9.0 | 0.00 | 0.00 | 0.00 | 45 | 1028.8 |
| 20260508083019 | 73 | 72 | 3.0 | 6.0 | 0.00 | 0.00 | 0.00 | 44 | 1028.8 |
| 20260508082016 | 73 | 28 | 2.0 | 4.0 | 0.00 | 0.00 | 0.00 | 43 | 1028.8 |
| 20260508081034 | 73 | 59 | 2.0 | 5.0 | 0.00 | 0.00 | 0.00 | 44 | 1028.8 |
| 20260508080029 | 73 | 59 | 2.0 | 6.0 | 0.00 | 0.00 | 0.00 | 43 | 1028.8 |
| 20260508075025 | 74 | 51 | 1.0 | 5.0 | 0.00 | 0.00 | 0.00 | 43 | 1028.7 |
| 20260508074019 | 74 | 61 | 2.0 | 7.0 | 0.00 | 0.00 | 0.00 | 43 | 1028.8 |
| 20260508073016 | 74 | 87 | 2.0 | 5.0 | 0.00 | 0.00 | 0.00 | 43 | 1028.8 |
| 20260508072033 | 73 | 51 | 3.0 | 9.0 | 0.00 | 0.00 | 0.00 | 44 | 1028.9 |
| 20260508071032 | 73 | 65 | 3.0 | 10.0 | 0.00 | 0.00 | 0.00 | 44 | 1028.9 |
| 20260508070025 | 74 | 69 | 2.0 | 6.0 | 0.00 | 0.00 | 0.00 | 43 | 1029.0 |
| 20260508065022 | 73 | 65 | 2.0 | 7.0 | 0.00 | 0.00 | 0.00 | 44 | 1028.9 |
| 20260508064019 | 73 | 66 | 3.0 | 7.0 | 0.00 | 0.00 | 0.00 | 45 | 1029.0 |
| 20260508063016 | 73 | 55 | 2.0 | 9.0 | 0.00 | 0.00 | 0.00 | 44 | 1029.2 |
| 20260508062033 | 73 | 33 | 1.0 | 4.0 | 0.00 | 0.00 | 0.00 | 45 | 1029.1 |
| 20260508061031 | 73 | 12 | 2.0 | 6.0 | 0.00 | 0.00 | 0.00 | 45 | 1029.3 |
| 20260508060028 | 72 | 69 | 2.0 | 5.0 | 0.00 | 0.00 | 0.00 | 47 | 1029.5 |
| 20260508055025 | 72 | 52 | 2.0 | 7.0 | 0.00 | 0.00 | 0.00 | 47 | 1029.6 |
| 20260508054022 | 72 | 330 | 2.0 | 5.0 | 0.00 | 0.00 | 0.00 | 46 | 1029.5 |
| 20260508053019 | 73 | 70 | 3.0 | 9.0 | 0.00 | 0.00 | 0.00 | 46 | 1029.8 |
| 20260508052016 | 73 | 56 | 2.0 | 5.0 | 0.00 | 0.00 | 0.00 | 46 | 1029.8 |
| 20260508051034 | 72 | 8 | 2.0 | 8.0 | 0.00 | 0.00 | 0.00 | 46 | 1030.1 |
| 20260508050031 | 72 | 64 | 2.0 | 6.0 | 0.00 | 0.00 | 0.00 | 46 | 1030.3 |
| 20260508045029 | 71 | 5 | 2.0 | 5.0 | 0.00 | 0.00 | 0.00 | 47 | 1030.4 |
| 20260508044026 | 71 | 352 | 1.0 | 4.0 | 0.00 | 0.00 | 0.00 | 49 | 1030.5 |
| 20260508043023 | 70 | 79 | 2.0 | 8.0 | 0.00 | 0.00 | 0.00 | 50 | 1030.7 |
| 20260508042021 | 70 | 357 | 2.0 | 4.0 | 0.00 | 0.00 | 0.00 | 50 | 1030.9 |
| 20260508041018 | 70 | 62 | 2.0 | 6.0 | 0.00 | 0.00 | 0.00 | 50 | 1031.3 |
| 20260508040035 | 70 | 15 | 2.0 | 6.0 | 0.00 | 0.00 | 0.00 | 50 | 1031.4 |
| 20260508035033 | 70 | 43 | 2.0 | 6.0 | 0.00 | 0.00 | 0.00 | 51 | 1031.6 |
| 20260508034030 | 69 | 39 | 3.0 | 7.0 | 0.00 | 0.00 | 0.00 | 51 | 1032.0 |
| 20260508033027 | 69 | 2 | 1.0 | 4.0 | 0.00 | 0.00 | 0.00 | 50 | 1032.1 |
| 20260508032025 | 69 | 14 | 2.0 | 4.0 | 0.00 | 0.00 | 0.00 | 52 | 1032.2 |
| 20260508031022 | 69 | 7 | 2.0 | 5.0 | 0.00 | 0.00 | 0.00 | 52 | 1032.2 |
| 20260508030020 | 68 | 21 | 2.0 | 4.0 | 0.00 | 0.00 | 0.00 | 53 | 1032.3 |
| 20260508025018 | 67 | 6 | 2.0 | 5.0 | 0.00 | 0.00 | 0.00 | 54 | 1032.5 |
| 20260508024035 | 67 | 72 | 2.0 | 5.0 | 0.00 | 0.00 | 0.00 | 55 | 1032.5 |
| 20260508023033 | 66 | 95 | 2.0 | 10.0 | 0.00 | 0.00 | 0.00 | 58 | 1032.6 |
| 20260508022030 | 65 | 120 | 2.0 | 7.0 | 0.00 | 0.00 | 0.00 | 60 | 1032.8 |
| 20260508021028 | 65 | 121 | 2.0 | 6.0 | 0.00 | 0.00 | 0.00 | 61 | 1032.8 |
| 20260508020026 | 64 | 130 | 3.0 | 6.0 | 0.00 | 0.00 | 0.00 | 63 | 1033.1 |
| 20260508015022 | 64 | 116 | 3.0 | 8.0 | 0.00 | 0.00 | 0.00 | 64 | 1033.2 |
| 20260508014020 | 63 | 143 | 3.0 | 11.0 | 0.00 | 0.00 | 0.00 | 65 | 1033.4 |
| 20260508013018 | 63 | 121 | 4.0 | 10.0 | 0.00 | 0.00 | 0.00 | 67 | 1033.5 |
| 20260508012035 | 62 | 143 | 3.0 | 6.0 | 0.00 | 0.00 | 0.00 | 69 | 1033.6 |
| 20260508011033 | 61 | 143 | 2.0 | 5.0 | 0.00 | 0.00 | 0.00 | 70 | 1033.6 |
| 20260508010030 | 61 | 122 | 3.0 | 7.0 | 0.00 | 0.00 | 0.00 | 70 | 1033.7 |
| 20260508005028 | 60 | 116 | 2.0 | 7.0 | 0.00 | 0.00 | 0.00 | 71 | 1033.7 |
| 20260508004024 | 60 | 109 | 3.0 | 7.0 | 0.00 | 0.00 | 0.00 | 72 | 1033.7 |
| 20260508003022 | 59 | 118 | 3.0 | 7.0 | 0.00 | 0.00 | 0.00 | 73 | 1033.7 |